Create Custom Reports and Graphics: Custom Report

North Region Latest Observations

Map

10 Minute Data

Winnemucca/Elko Latest Observations

Map

10 Minute Data

South Region Latest Observations

Map

10 Minute Data

Latest Observation

67 Stations

10 Minute Data
as of 5/10/26 11:31 AM PDT
Station Date Time Temp (°F) RH (%) Dew Pt (°F) Wind Spd (mph) Wind Dir (°) Wind Gust (mph) Wind Gst Dir (°) Latest Rain (In) Soil Moist (%) Soil Temp (°F) Daily Rain (In) Daily Min Temp (°F) Daily Max Temp (°F) Daily Max Wind (mph)
Hobart Mills 5/10/26 1130 74.2   7.9 26   9 37.6   0.4 3.2   0.7 ENE | 73 6.7   2.7 NE | 47 0.00 - 32.0   0.0 0.03 28.9   0.0 74.6   4.0 9.4   0.9
Prosser Dam 5/10/26 1130 74.1   8.3 27   8 38.0   0.9 2.3   0.9 NNE | 24 5.0   2.5 E | 86 0.00 20.8   1.2 52.5   1.1 0.00 33.2   2.7 74.6   8.3 8.9   1.5
West Incline Village 5/10/26 1130 67.7   6.6 28   3 33.0   3.1 3.5   0.4 SSE | 159 7.1   2.1 S | 171 0.00 31.8   0.5 47.7   0.8 0.00 49.6   5.0 68.0   6.6 7.1   6.2
Incline Village (Fairview Blvd) 5/10/26 1130 67.2   5.4 32   3 36.2   7.4 2.0   1.4 SW | 232 5.2   5.3 WSW | 238 0.00 25.7   0.2 55.3   1.6 0.00 50.8   4.1 67.6   5.4 5.2   7.6
Incline Village (Diamond Peak) 5/10/26 1120 64.9   7.6 36   6 37.0   10.9 2.0   3.0 NW | 304 5.2   8.0 NW | 311 0.00 9.0   0.2 50.4   1.9 0.00 56.5   6.9 65.2   7.5 8.9   10.1
Incline Village (Mill Creek) 5/10/26 1130 66.5   3.9 28   1 32.8   2.6 0.8   1.7 W | 260 2.7   6.8 WNW | 286 0.00 10.7   0.2 48.7   1.0 0.00 48.9   3.4 67.3   4.3 3.8   11.8
Incline Village (Lakeshore Blvd) 5/10/26 1130 58.3   6.4 63   35 45.6   15.0 2.0   1.2 SW | 216 3.6   6.1 SW | 222 0.00 30.4   0.7 53.4   0.6 0.00 40.8   1.3 58.6   6.8 4.6   9.1
Glenbrook 5/10/26 1130 59.9   2.6 45   19 38.5   6.5 3.3   0.7 WSW | 248 5.2   3.6 W | 261 0.00 44.3   0.1 46.2   0.3 0.00 42.7   2.0 60.8   1.6 5.7   11.7
Zephyr Cove 5/10/26 1130 65.0   0.5 31   5 34.1   3.7 1.2   0.7 NNW | 333 3.7   1.4 NNW | 339 0.00 - 34.3   0.0 0.00 47.2   2.7 65.4   0.8 4.0   3.1
Kingsbury Grade 5/10/26 1130 66.9   5.7 37   8 39.8   10.8 1.3   5.1 WSW | 239 4.3   10.4 WSW | 237 0.00 6.7   0.2 55.2   1.6 0.00 45.3   2.5 67.7   5.8 7.0   12.2
South Daggett Pass (Ridge) 5/10/26 1130 66.2   8.0 38   5 40.1   10.9 2.2   3.6 WNW | 298 7.9   4.8 NW | 324 0.00 6.6   0.1 51.5   1.4 0.00 55.8   6.5 67.6   9.0 11.9   3.2
Palomino Valley 5/10/26 1130 79.3   5.4 13   5 24.9   3.0 3.8   2.7 NW | 326 10.6   5.0 NNW | 340 0.00 7.1   0.1 67.6   0.8 0.00 39.2   2.1 79.8   5.7 10.6   0.6
East Cold Springs 5/10/26 1130 74.9   7.4 17   8 27.8   3.1 6.6   0.2 ESE | 121 12.2   0.1 ESE | 114 0.00 1.8   0.0 58.0   0.4 0.00 53.9   3.4 75.6   7.5 13.5   1.2
Peavine 5/10/26 1130 73.0   8.6 20   6 30.0   0.4 4.9   1.8 ESE | 121 10.2   1.0 ESE | 123 0.00 - 53.4   0.0 0.00 54.6   8.6 73.5   8.3 13.8   1.9
West Verdi Peak 5/10/26 1130 72.7   8.6 23   3 32.2   3.8 2.3   2.8 WNW | 294 9.1   2.6 NW | 314 0.00 17.8   1.4 55.0   0.8 0.00 53.4   5.0 73.3   8.6 9.2   5.0
West Verdi 5/10/26 1130 75.5   6.7 22   2 33.9   3.7 3.1   1.2 ESE | 123 7.5   3.5 ESE | 114 0.00 7.7   0.1 64.3   1.0 0.00 45.9   0.5 75.9   6.7 7.5   4.2
South Verdi 5/10/26 1130 73.0   7.0 22   6 31.7   0.2 2.4   12.7 WSW | 248 6.6   19.5 WSW | 248 0.00 15.8   0.2 62.8   1.4 0.00 54.3   2.6 74.1   7.4 14.2   12.7
Northwest Reno 5/10/26 1130 76.1   7.8 16   6 26.5   1.1 7.1   0.3 SE | 132 14.7   2.1 SE | 137 0.00 23.9   0.0 66.0   1.2 0.00 56.6   2.2 77.3   7.5 14.7   2.9
North Lawton 5/10/26 1130 76.3   8.0 19   4 31.0   1.7 2.7   4.8 ESE | 110 5.8   9.4 ESE | 123 0.00 - 60.4   0.0 0.00 50.2   2.2 77.4   8.6 12.0   4.1
West Reno (Mogul) 5/10/26 1130 75.5   7.0 18   7 28.8   2.4 1.7   9.0 N | 6 7.9   9.3 NNE | 23 0.00 36.0   0.6 64.2   0.8 0.00 49.2   0.7 76.6   7.5 12.0   7.3
Caughlin (Hunter Lake Trail) 9/16/25 0800 59.7   3.5 41   11 35.9   2.7 0.0   0.0 N | 0 0.0   0.0 ENE | 66 0.00 15.7   0.0 69.8   0.5 0.00 55.7   3.2 67.7   9.1 9.4   0.9
ArrowCreek 5/10/26 1130 74.6   6.0 23   4 34.0   1.1 2.6   2.2 NNE | 32 6.3   4.8 NE | 55 0.00 - 32.0   0.0 0.00 51.6   1.2 75.1   5.8 11.0   0.1
Tracy 5/10/26 1130 81.8   8.4 11   5 23.2   2.3 8.0   0.0 E | 85 12.8   0.5 ENE | 76 0.00 8.1   0.0 68.0   0.6 0.00 49.6   2.6 82.6   8.7 16.8   3.4
Virginia Highlands 5/10/26 1130 74.1   8.6 17   6 26.0   0.7 9.2   4.5 ESE | 123 17.1   7.8 ESE | 123 0.00 8.0   0.1 60.3   1.1 0.00 59.6   6.0 75.2   8.8 17.3   2.1
Virginia City 5/10/26 1130 72.4   8.2 18   6 26.1   0.1 2.6   1.4 SE | 134 7.3   3.7 ESE | 122 0.00 8.2   0.1 58.7   0.7 0.00 58.0   4.4 72.8   8.1 9.2   17.9
Six Mile Canyon 9/9/25 0630 60.2   9.6 37   6 33.7   4.8 4.1   2.5 W | 277 6.1   2.9 WNW | 286 0.00 12.5   0.0 75.5   0.7 0.00 57.9   7.6 64.4   1.9 7.0   3.9
Mt Rose Highway 4/30/26 0510 40.8   4.7 47   13 22.3   1.3 2.3   0.2 WSW | 243 4.8   2.1 WSW | 246 0.00 24.1   0.3 43.0   0.8 0.00 40.5   4.7 43.0   5.3 7.7   0.4
Pleasant Valley 5/10/26 1130 76.6   5.7 19   7 30.6   3.5 7.3   4.7 SW | 226 11.4   4.7 SW | 219 0.00 2.9   0.0 66.3   1.5 0.00 48.3   0.7 77.9   6.6 12.4   3.1
New Washoe City 5/10/26 1130 76.6   8.1 18   9 29.5   3.6 3.4   0.3 W | 263 10.2   2.2 W | 270 0.00 4.4   0.0 63.7   1.2 0.00 49.2   1.3 77.3   8.1 11.3   0.5
Franktown Creek 5/10/26 1130 74.8   6.2 24   0 35.5   5.5 1.2   1.2 E | 89 3.5   2.1 ESE | 104 0.00 11.2   0.1 59.3   1.1 0.00 47.3   1.9 75.4   6.4 5.1   0.7
Musgrove Creek 5/10/26 1130 73.2   6.9 25   5 34.9   1.0 2.4   1.7 N | 8 7.3   1.7 NNE | 12 0.00 39.6   1.7 55.4   0.5 0.00 57.0   4.7 73.5   6.8 8.1   1.1
East Carson 11/23/24 0110 28.6   28.4 - - 4.7   11.0 SW | 220 14.7   10.1 SW | 219 0.02 - 50.9   0.1 0.02 -25.9   79.1 42.9   14.6 16.0   10.7
Kings Canyon 5/10/26 1130 72.8   4.4 25   0 35.2   4.2 4.3   0.5 NNW | 330 7.7   1.6 NNW | 338 0.00 13.8   0.5 59.8   1.1 0.00 48.1   0.8 73.6   4.5 8.8   2.8
Carson City (Voltaire Canyon) 5/10/26 1130 74.6   6.0 19   4 30.1   0.6 4.9   0.7 E | 84 8.2   4.6 ENE | 70 0.00 2.9   0.0 65.2   1.5 0.00 56.3   2.5 75.2   4.7 13.3   1.5
Jacks Valley 5/10/26 1130 74.8   6.0 17   8 27.3   4.2 4.4   0.5 NE | 45 8.6   3.0 NNE | 32 0.00 12.8   0.3 66.9   1.3 0.00 50.7   3.2 75.2   5.9 8.9   6.7
Genoa 5/10/26 1130 76.4   5.5 22   3 34.2   1.5 1.8   0.9 NNE | 30 5.2   1.9 NE | 34 0.00 6.6   0.6 70.4   1.1 0.00 49.2   1.3 76.8   4.7 6.0   0.1
South Genoa (Walleys Hot Springs) 5/10/26 1130 75.7   4.9 19   6 30.3   3.0 2.3   0.1 N | 358 7.0   2.5 N | 354 0.00 14.0   0.1 66.0   1.1 0.00 42.3   1.0 76.8   5.2 8.3   0.2
SW Gardnerville (HWY 88) 5/10/26 1130 72.3   4.0 26   5 35.8   1.1 2.5   1.1 NW | 304 5.5   2.7 WNW | 303 0.00 3.4   0.0 61.1   1.2 0.00 41.7   0.2 72.9   4.2 5.7   2.6
Sheridan 5/10/26 1130 71.8   2.5 33   1 40.8   3.1 3.7   0.6 NNE | 27 7.6   0.4 NNE | 17 0.00 3.2   0.5 62.8   0.9 0.00 45.1   0.1 72.1   2.5 7.7   0.9
Ruhenstroth 5/10/26 1130 73.8   4.9 24   7 34.7   2.7 3.9   0.7 NW | 304 9.9   3.4 NW | 324 0.00 12.3   0.2 61.4   1.2 0.00 45.9   1.1 74.1   4.8 10.1   3.2
Double Spring 5/10/26 1130 74.9   9.3 18   6 28.2   0.5 7.5   0.2 S | 171 11.8   0.4 SSW | 192 0.00 30.9   0.1 59.4   1.1 0.00 37.1   3.3 75.5   9.2 15.5   2.0
North Topaz Lake 5/10/26 1130 75.2   6.5 20   2 31.2   3.2 3.6   4.4 ESE | 112 8.1   11.3 ESE | 122 0.00 9.7   0.0 73.4   1.0 0.00 57.6   3.3 76.7   7.2 8.1   11.3
Wild Oat Mountain 5/10/26 1130 72.7   6.2 20   5 29.6   0.1 1.7   1.3 NNE | 14 5.2   3.2 NE | 54 0.00 16.9   0.0 61.7   1.2 0.00 56.5   3.2 73.5   6.3 7.5   5.6
Smith Valley 5/10/26 1130 75.1   5.4 19   3 30.7   1.4 2.7   1.3 NE | 44 6.1   5.6 ENE | 71 0.00 5.8   0.0 65.3   1.3 0.00 49.3   1.3 76.0   5.1 8.4   3.2
Pine Grove Mountain 5/10/26 1130 68.0   11.0 21   9 26.4   0.9 2.8   3.6 W | 270 7.5   7.2 WSW | 245 0.00 20.1   0.8 54.3   1.4 0.00 54.8   7.6 69.2   11.3 15.2   0.1
Paradise Hill 5/10/26 1130 76.5   7.7 13   8 22.7   4.5 5.2   1.6 SE | 137 15.6   6.5 SSE | 149 0.00 8.0   0.0 62.3   0.8 0.00 42.6   0.4 77.6   8.1 17.1   5.5
Winnemucca 5/10/26 1130 78.1   8.0 13   6 23.0   2.1 5.3   0.1 WNW | 301 11.7   2.1 NW | 304 0.00 5.8   0.0 61.5   0.5 0.00 44.6   6.8 78.6   7.6 18.5   5.2
NE Elko 5/10/26 1130 71.4   5.4 15   5 22.0   2.0 3.3   0.3 WSW | 243 9.1   1.7 SW | 215 0.00 12.4   0.0 58.2   0.8 0.00 30.6   3.8 72.6   5.5 9.2   3.5
North Elko 5/10/26 1130 69.6   5.4 11   10 12.3   10.9 2.5   3.1 SE | 127 8.4   2.0 SSE | 148 0.00 28.5   0.0 58.6   0.0 0.00 43.9   2.6 70.1   4.8 12.7   2.8
South Elko 5/10/26 1130 72.1   10.6 17   4 24.4   3.8 6.2   2.7 S | 185 12.0   4.2 SSW | 210 0.00 18.2   0.1 58.6   0.9 0.00 48.7   0.9 - 12.4   1.4
Lamoille 1/28/26 1720 33.2   0.5 65   17 22.8   6.3 5.8   1.5 SSE | 166 7.7   1.9 SE | 139 0.00 12.2   0.0 33.4   0.1 0.02 23.5   2.0 36.5   5.9 25.6   17.4
Reid Gardner Sub 5/10/26 1130 94.3   0.0 8   3 25.1   8.3 4.6   0.9 NNW | 331 13.0   5.8 ENE | 60 0.00 27.6   3.1 76.5   2.3 0.00 72.8   17.1 95.3   0.1 17.5   7.5
Corn Creek 5/10/26 1130 88.1   0.2 10   3 25.2   6.1 9.0   1.2 ESE | 114 18.1   4.1 E | 96 0.00 3.9   0.0 80.8   0.9 0.00 72.7   1.7 89.0   0.1 18.1   2.4
Lucky Strike 5/10/26 1130 77.0   0.2 11   3 18.8   5.6 9.8   1.8 E | 93 18.3   2.1 ESE | 104 0.00 4.6   0.0 74.2   1.4 0.00 64.2   1.7 78.2   0.3 19.5   2.0
Lower Angel Peak 5/10/26 1130 71.8   0.3 15   3 21.4   5.1 6.3   1.4 NNW | 343 16.8   1.0 NNW | 348 0.00 9.6   0.2 60.8   1.2 0.00 55.2   0.2 72.6   0.2 18.5   2.7
Angel Peak 5/10/26 1130 60.7   2.5 19   3 18.1   5.9 10.5   7.6 ESE | 120 19.0   6.8 ESE | 119 0.00 3.5   0.4 57.3   1.0 0.00 54.9   1.3 61.6   3.1 20.6   8.2
Upper Kyle Canyon 5/10/26 1130 66.6   0.7 17   4 21.1   5.6 9.5   0.9 ESE | 122 17.1   0.6 ESE | 112 0.00 12.8   0.2 60.1   1.0 0.00 50.2   8.9 67.6   0.7 17.1   1.7
Mt Charleston 5/10/26 1130 67.0   0.7 17   5 20.7   5.6 3.8   0.8 ENE | 66 10.2   1.7 ESE | 108 0.00 18.1   0.1 53.3   1.3 0.00 54.5   1.1 67.6   0.2 13.7   1.6
Mid Kyle Canyon 5/10/26 1130 72.2 14 21.1 9.3 ENE | 69 16.4 E | 86 0.00 6.9 63.1 0.00 56.6 73.0 18.1
Blue Diamond 5/10/26 1130 85.5   1.9 10   3 22.0   8.9 4.9   1.2 ENE | 76 11.8   0.4 E | 88 0.00 3.0   0.0 73.4   0.1 0.00 57.4   12.4 86.1   2.4 14.5   4.6
Artesian Sub 5/10/26 1130 94.1   0.7 8   2 24.1   6.9 4.7   2.0 ENE | 58 12.8   4.6 ENE | 68 0.00 13.1   0.1 76.6   0.9 0.00 75.4   0.6 95.7   0.0 15.6   3.1
North Henderson 5/10/26 1130 93.9   0.3 8   3 23.7   7.0 7.5   2.5 NNE | 30 15.5   5.5 NNE | 17 0.00 9.7   0.1 84.2   1.7 0.00 78.4   1.3 94.6   0.7 18.0   2.9
Sandy Valley 5/10/26 1130 91.5   4.0 11   6 29.8   7.6 8.8   7.4 NE | 47 16.8   11.4 E | 91 0.00 4.5   0.0 81.0   1.4 0.00 66.1   3.3 92.1   4.1 22.6   9.8
Searchlight 5/10/26 1130 86.9   1.2 11   5 25.9   10.3 12.3   8.2 N | 350 22.2   11.0 NNE | 14 0.00 4.8   0.0 79.1   1.6 0.00 68.6   1.3 87.9   1.3 24.5   5.3
Laughlin 5/10/26 1130 101.8   5.8 10   6 34.3   7.9 9.8   4.8 NNE | 26 15.4   6.6 N | 10 0.00 4.2   0.1 87.4   1.7 0.00 77.6   0.4 102.2   5.9 22.0   11.7
31Mission Hills 5/10/26 1130 91.2   0.6 8   3 22.6   6.9 9.0   5.7 N | 9 14.2   2.5 NNE | 28 0.00 3.7   0.0 85.0   0.8 0.00 74.6   0.9 92.3   1.1 20.9   8.6
32 Enterprise Sierra Cliffs 5/10/26 1130 86.9   0.7 7   2 16.9   6.6 5.4   2.2 N | 7 14.3   6.6 NNE | 31 0.00 2.1   0.0 77.6   0.3 0.00 73.7   1.4 87.7   0.7 15.2   3.2
Max     101.8 63 45.6 12.3 - 22.2 - 0.00 44.3 87.4 0.03 78.4 102.2 24.5
Avg     75.3 20 29.2 4.7 - 10.1 - 0.00 12.9 61.9 - - - -
Min     58.3 7 12.3 0.8 - 2.7 - 0.00 1.8 32.0 0.00 28.9 58.6 3.8

Latest Observation

67 Stations

Daily Data
as of 5/10/26 11:31 AM PDT
Station Date Daily Max Temp (°F) Daily Min Temp (°F) Daily Max RH (%) Daily Min RH (%) Wind Spd (mph) Wind Dir (°) Daily Max Wind (mph) Max Wind Dir (°) Time of Max Wind Daily Rain (In) Weekly Precip (In) Season Precip (In) Soil Moist (%) Fuel Temp (°F) Fuel Moisture (%) MinBV Day (V)
Hobart Mills 12/23/25 51.8   11.3 33.9   2.1 88   12 42   34 2.1   1.7 SW | 224 18.4   8.6 WSW | 240 2307 0.65 6.21 15.12 - 37.6   2.8 42   19 8.0   0.7
Prosser Dam 5/9/26 74.8   3.0 35.9   7.2 98   1 17   1 2.4   0.8 NW | 316 16.2   6.1 NW | 316 1539 0.00 0.73 8.47 21.7   1.1 60.3   4.2 9   0 12.6   0.0
West Incline Village 5/9/26 69.0   4.1 44.6   2.1 75   15 18   2 3.0   0.0 ENE | 62 16.5   1.7 S | 181 1236 0.00 1.24 7.94 32.3   0.6 62.1   3.6 6   0 12.5   0.0
Incline Village (Fairview Blvd) 5/9/26 72.4   5.8 46.7   2.2 75   16 16   4 1.6   0.3 NE | 52 13.4   2.0 SSE | 149 1422 0.00 1.19 7.48 25.9   0.3 63.8   4.4 7   1 12.6   0.0
Incline Village (Diamond Peak) 5/9/26 65.7   2.5 49.7   4.6 59   1 16   5 5.6   4.8 E | 80 19.0   11.5 ENE | 68 0959 0.00 0.10 0.51 9.2   0.1 -11.4   0.0 - 12.4   0.0
Incline Village (Mill Creek) 5/9/26 72.3   5.3 45.4   4.4 92   19 15   3 1.6   0.5 NE | 51 15.6   0.1 N | 4 1047 0.00 1.22 7.18 10.9   0.2 - - 12.4   0.0
Incline Village (Lakeshore Blvd) 5/9/26 68.6   4.3 39.5   5.4 86   4 24   4 1.5   0.2 ENE | 62 13.7   8.2 NE | 56 1035 0.00 1.07 7.20 30.7   0.7 64.3   2.1 13   0 12.3   0.0
Glenbrook 5/9/26 70.3   3.8 40.7   3.2 90   2 19   1 2.2   0.5 SW | 222 17.4   11.7 W | 263 1003 0.00 1.09 5.88 44.3   0.0 55.5   1.6 11   1 12.5   0.0
Zephyr Cove 5/9/26 68.3   0.1 44.5   4.8 79   0 22   4 0.0   0.0 N | 0 7.1   0.2 SSW | 202 1059 0.00 0.02 0.68 - 48.4   1.6 - 12.6   0.0
Kingsbury Grade 5/9/26 69.9   0.7 42.9   6.4 75   12 15   3 3.3   2.0 E | 91 19.1   5.5 SE | 140 1051 0.00 0.95 5.82 6.8   0.2 59.4   4.0 6   2 12.5   0.0
South Daggett Pass (Ridge) 5/9/26 65.9   3.3 49.3   8.2 57   18 16   4 4.1   1.6 SE | 128 15.6   1.2 ENE | 73 1132 0.00 0.73 4.05 6.7   0.0 59.5   5.2 7   2 12.5   0.0
Palomino Valley 5/9/26 81.7   1.9 41.4   0.2 71   2 12   3 3.5   1.1 NW | 323 20.2   4.1 NNW | 344 1515 0.00 0.27 1.41 7.1   0.1 66.2   0.5 0   0 12.6   0.0
East Cold Springs 5/9/26 77.2   3.0 50.5   5.4 60   2 13   4 4.7   3.6 NNW | 330 27.0   4.3 ESE | 109 1517 0.00 0.61 2.09 1.8   0.0 65.0   0.1 8   0 12.7   0.0
Peavine 5/9/26 74.5   3.8 46.0   0.7 55   2 13   6 3.9   0.9 S | 189 16.2   7.9 ESE | 118 1156 0.00 0.65 2.14 - - - 12.5   0.0
West Verdi Peak 5/9/26 74.1   2.6 48.4   4.7 66   1 14   2 2.3   0.9 NE | 39 16.0   3.6 ESE | 107 1255 0.00 0.75 6.39 19.0   1.3 63.1   0.1 7   0 12.6   0.0
West Verdi 5/9/26 78.3   2.2 45.4   2.8 73   12 12   2 2.9   0.9 NNE | 19 14.5   5.7 ENE | 78 1311 0.00 0.65 5.92 7.9   0.1 67.9   3.8 9   0 12.6   0.0
South Verdi 5/9/26 76.0   2.1 51.7   11.1 58   10 13   0 7.7   3.9 WSW | 248 28.8   1.7 WSW | 248 1335 0.00 0.53 4.81 16.2   0.2 66.4   2.0 7   0 12.7   0.0
Northwest Reno 5/9/26 79.2   2.3 54.3   5.5 60   15 11   1 5.9   2.8 NE | 50 34.4   6.4 E | 95 1343 0.00 0.29 1.33 24.1   0.1 -17.7   0.1 - 12.5   0.1
North Lawton 5/9/26 78.9   1.9 48.0   0.8 66   14 12   1 5.4   2.0 NNW | 333 17.9   4.1 NNE | 30 1321 0.00 0.41 2.14 - - - 12.5   0.0
West Reno (Mogul) 5/9/26 78.0   0.8 48.5   1.1 68   16 11   2 5.4   0.7 ENE | 68 21.0   3.7 NE | 52 1235 0.00 0.32 4.24 36.4   0.6 68.8   0.2 2   0 12.5   0.0
Caughlin (Hunter Lake Trail) 9/15/25 78.6   1.3 52.5   3.7 58   7 23   2 4.2   2.5 S | 173 13.0   20.5 NNE | 31 1309 0.00 0.32 8.05 15.7   0.1 67.4   0.5 7   1 12.7   0.0
ArrowCreek 5/9/26 78.6   1.6 50.4   4.4 59   8 11   2 4.3   1.0 S | 184 15.3   10.7 NE | 45 1201 0.00 0.68 5.25 - - - 12.4   0.0
Tracy 5/9/26 82.5   1.3 52.2   0.7 61   18 10   0 3.9   4.1 ENE | 74 20.5   3.5 E | 90 1446 0.00 0.37 1.23 8.1   0.0 71.1   0.8 6   0 12.7   0.0
Virginia Highlands 5/9/26 74.4   1.6 53.6   4.2 52   3 12   3 4.2   0.4 ESE | 121 16.3   3.4 SE | 131 1219 0.00 0.41 2.15 8.1   0.2 67.5   2.4 6   0 12.6   0.0
Virginia City 5/9/26 73.3   2.2 53.6   0.4 44   4 13   2 4.3   4.9 N | 7 27.1   2.4 NNW | 340 0109 0.00 0.41 1.86 8.4   0.0 65.5   0.1 4   0 12.6   0.0
Six Mile Canyon 9/8/25 98.8   16.5 50.2   7.6 44   3 11   1 7.2   0.3 WSW | 252 27.0   4.6 SSE | 159 1325 0.00 0.00 0.89 12.6   0.1 69.7   3.0 4   0 12.4   0.2
Mt Rose Highway 4/29/26 56.6   7.9 35.6   4.1 63   16 31   6 2.2   0.0 NW | 305 10.8   4.2 NE | 35 1152 0.00 0.08 4.93 24.3   0.3 47.6   8.0 3   0 12.4   0.0
Pleasant Valley 5/9/26 81.7   4.8 47.6   6.6 67   10 12   4 2.5   1.4 SSW | 211 13.2   6.5 SSW | 201 1338 0.00 0.44 2.52 2.9   0.0 70.5   2.7 7   0 12.6   0.0
New Washoe City 5/9/26 78.1   2.6 47.9   3.6 61   9 11   3 3.5   1.5 N | 352 14.2   6.7 W | 263 1444 0.00 0.44 1.76 4.5   0.0 67.6   2.7 7   0 12.6   0.0
Franktown Creek 5/9/26 79.2   3.5 45.4   2.2 72   15 13   2 1.1   0.9 NW | 316 9.2   9.3 NNE | 25 1226 0.00 0.62 5.97 11.2   0.0 61.7   1.4 8   0 12.6   0.0
Musgrove Creek 5/9/26 75.3   2.6 52.2   0.4 59   12 14   1 1.6   1.3 W | 261 11.6   3.6 NE | 43 1239 0.00 0.92 8.00 41.0   2.4 65.0   0.0 11   3 12.5   0.0
East Carson 11/22/24 63.8   0.3 41.7   4.6 85   21 21   9 14.9   6.0 SW | 224 46.6   12.7 S | 171 1835 0.05 0.05 4.48 2.5   0.0 53.9   0.3 9   0 12.6   0.0
Kings Canyon 5/9/26 77.4   3.1 47.3   3.9 64   10 16   4 3.5   1.2 S | 178 12.5   6.3 NNW | 330 1555 0.00 0.64 4.52 14.3   0.4 69.4   2.6 4   0 12.6   0.0
Carson City (Voltaire Canyon) 5/9/26 78.4   2.8 53.8   1.8 60   3 13   2 4.1   4.1 N | 359 14.9   10.3 ENE | 59 1653 0.00 1.24 1.33 2.8   0.0 -10.9   0.0 - 12.6   0.0
Jacks Valley 5/9/26 77.7   2.7 47.5   1.1 63   2 15   2 2.6   2.5 ENE | 57 15.6   8.2 NE | 47 1012 0.00 0.51 2.50 13.2   0.3 66.6   1.3 6   1 12.6   0.0
Genoa 5/9/26 81.1   1.8 47.9   3.2 68   1 15   2 1.0   0.6 SW | 227 9.3   6.7 NE | 34 1449 0.00 0.47 5.22 7.0   0.7 66.6   1.4 8   1 12.3   0.0
South Genoa (Walleys Hot Springs) 5/9/26 80.3   2.5 43.3   3.0 90   0 13   0 2.3   2.3 NNW | 334 11.3   17.5 NW | 304 2013 0.00 0.40 3.35 14.0   0.0 68.0   1.8 7   0 12.5   0.0
SW Gardnerville (HWY 88) 5/9/26 77.9   1.7 41.4   4.1 89   3 17   3 3.4   1.8 WNW | 295 10.8   12.3 WNW | 296 1454 0.00 0.03 0.60 3.4   0.0 63.2   1.7 9   0 12.4   0.0
Sheridan 5/9/26 78.4   0.4 45.3   2.7 75   7 17   4 3.4   0.5 NW | 322 10.6   15.6 N | 0 1451 0.00 0.40 3.46 3.6   0.7 69.3   2.0 7   0 12.6   0.0
Ruhenstroth 5/9/26 79.8   1.8 44.8   1.8 71   7 16   4 3.4   0.8 W | 272 15.2   7.5 NW | 308 1416 0.00 0.64 2.06 12.4   0.1 65.0   2.2 8   0 12.6   0.0
Double Spring 5/9/26 75.1   1.3 40.4   1.6 76   3 14   2 3.7   2.1 WSW | 253 15.9   16.1 N | 6 1751 0.00 0.78 2.44 31.2   0.1 61.4   0.1 8   0 12.6   0.0
North Topaz Lake 5/9/26 77.5   1.2 54.4   2.2 50   13 12   2 3.9   2.6 ESE | 122 19.4   8.8 SE | 139 1120 0.00 0.54 1.68 9.6   0.0 69.4   1.0 5   0 12.6   0.0
Wild Oat Mountain 5/9/26 74.8   0.1 53.3   1.8 49   7 12   0 4.1   1.7 NE | 46 15.2   9.2 ENE | 61 1755 0.00 0.52 1.77 16.9   0.1 67.9   1.8 6   0 12.6   0.0
Smith Valley 5/9/26 79.3   1.5 48.0   2.5 60   3 14   4 4.1   0.5 NNW | 333 15.5   6.0 W | 264 2242 0.00 0.51 1.37 5.9   0.0 70.6   3.6 7   1 12.6   0.0
Pine Grove Mountain 5/9/26 65.3   1.5 47.3   0.1 46   10 17   5 5.4   3.3 NNE | 22 18.3   7.1 NNW | 338 1619 0.00 0.55 0.91 20.6   0.7 60.3   0.3 4   1 12.7   0.0
Paradise Hill 5/9/26 79.5   0.8 42.2   0.2 41   6 12   2 4.5   2.3 NE | 35 19.8   7.2 NNE | 18 2350 0.00 0.00 2.33 8.0   0.0 70.9   3.1 5   0 12.6   0.0
Winnemucca 5/9/26 79.0   0.5 49.7   2.1 30   10 8   5 4.9   2.9 NNE | 26 15.2   12.9 N | 6 1226 0.00 0.00 2.90 5.9   0.0 70.7   2.4 1   0 12.6   0.0
NE Elko 5/9/26 75.2   2.5 34.4   0.6 57   14 8   7 4.1   0.8 NW | 307 21.6   3.5 WNW | 282 1457 0.00 0.04 2.33 12.5   0.0 59.2   2.1 3   1 12.6   0.1
North Elko 5/9/26 74.0   1.1 46.5   0.5 40   9 10   5 6.4   1.2 NNW | 335 19.5   6.6 WNW | 286 1503 0.00 0.44 2.48 28.6   0.1 63.4   2.8 4   1 12.6   0.0
South Elko 5/9/26 - 49.6   3.2 99   8 14   4 6.5   0.0 NNE | 15 22.1   3.9 WNW | 299 1608 0.00 0.04 2.71 18.4   0.1 65.3   1.0 3   1 12.6   0.0
Lamoille 1/27/26 42.4   2.7 21.5   6.4 60   0 25   6 2.6   0.5 SE | 125 8.2   4.1 SE | 139 0137 0.00 0.00 0.67 12.3   0.2 26.9   1.3 11   0 8.5   2.8
Reid Gardner Sub 5/9/26 101.3   0.1 55.8   1.5 40   2 9   0 2.8   0.5 WSW | 243 15.6   1.5 SSW | 205 1730 0.00 0.00 0.56 26.3   0.1 88.3   10.0 1   0 12.7   0.0
Corn Creek 5/9/26 95.0   1.1 73.1   1.9 19   1 10   1 7.5   2.6 W | 259 21.7   6.2 WNW | 303 1558 0.00 0.00 0.63 4.0   0.0 88.4   2.3 1   0 12.6   0.0
Lucky Strike 5/9/26 82.7   0.2 65.8   3.4 21   3 10   0 7.3   3.3 NW | 308 24.1   11.2 N | 4 1640 0.00 0.00 1.21 4.6   0.0 79.8   0.5 2   0 12.6   0.0
Lower Angel Peak 5/9/26 77.6   0.9 55.0   1.8 29   0 13   0 5.1   0.6 SW | 222 18.6   10.3 NW | 322 1257 0.00 0.00 1.93 9.8   0.2 70.4   0.8 2   0 12.6   0.0
Angel Peak 5/9/26 67.9   5.9 56.2   0.7 27   2 17   1 3.7   4.8 WNW | 301 18.3   14.8 WNW | 296 1716 0.00 0.02 84.72 3.8   0.5 63.4   4.0 4   0 12.6   0.1
Upper Kyle Canyon 5/9/26 71.1   1.3 54.2   6.0 35   3 17   4 5.1   0.4 E | 81 20.1   2.0 ESE | 118 1206 0.49 0.49 5.08 13.0   0.3 72.8   6.6 6   0 12.7   0.1
Mt Charleston 5/9/26 71.9   0.3 55.5   3.6 32   4 16   4 3.1   0.6 W | 271 15.8   0.7 ESE | 105 1325 0.00 0.00 5.28 18.2   0.0 68.4   1.0 28   0 12.6   0.0
Mid Kyle Canyon 5/9/26 78.1   0.1 57.7   1.3 29   1 14   0 7.4   1.6 WNW | 300 20.7   11.3 ENE | 72 1335 0.02 0.02 2.10 6.9   0.1 76.0   0.3 7   2 12.8   0.0
Blue Diamond 5/9/26 92.9   0.5 69.8   1.2 28   1 10   2 5.8   1.7 NW | 326 33.4   8.9 SE | 134 1346 0.00 0.00 0.85 3.1   0.0 86.9   0.1 2   1 12.6   0.0
Artesian Sub 5/9/26 102.5   0.3 74.8   4.6 22   4 8   0 1.6   0.4 WSW | 249 13.2   2.1 NNW | 345 2344 0.00 0.00 0.35 13.1   0.0 - 0   0 12.7   0.0
North Henderson 5/9/26 102.2   0.3 79.7   6.8 22   3 8   1 4.2   0.8 W | 259 16.6   3.1 W | 281 1412 0.00 0.00 0.52 9.6   0.1 97.4   4.7 3   0 12.6   0.1
Sandy Valley 5/9/26 96.0   0.9 69.4   0.7 28   4 10   1 4.6   0.8 NW | 316 21.5   10.4 WNW | 303 1648 0.00 0.00 0.62 4.6   0.0 86.5   1.9 3   0 12.6   0.0
Searchlight 5/9/26 93.5   0.6 69.9   1.4 28   3 11   2 6.3   0.6 NNE | 22 45.0   15.2 NNE | 27 1441 0.00 0.00 0.51 4.8   0.1 88.4   0.2 1   0 12.6   0.0
Laughlin 5/9/26 106.7   1.0 77.2   3.6 25   3 10   1 4.8   0.6 S | 191 21.7   2.1 SSE | 161 1521 0.00 0.00 0.29 4.2   0.0 93.9   2.2 3   0 12.8   0.0
31Mission Hills 5/9/26 98.0   0.4 75.6   1.4 21   3 8   0 4.1   1.3 ENE | 57 21.9   6.6 ENE | 66 1610 0.00 - 0.00 3.8   0.0 91.4   0.8 5   0 13.2   0.0
32 Enterprise Sierra Cliffs 5/9/26 95.0   0.4 75.2   2.1 18   1 6   0 6.0   1.1 SW | 222 20.5   5.2 W | 278 2227 0.00 - 0.00 2.3   0.0 88.7   0.9 5   1 13.2   0.0
Max   106.7 79.7 99 24 7.7 - 45.0 - - 0.49 - 84.72 44.3 97.4 28 13.2
Avg   - - - - 4.0 - - - - - - - 13.1 65.5 6 -
Min   65.3 34.4 18 6 0.0 - 7.1 - - 0.00 - 0.00 1.8 -17.7 0 12.3

Fosberg 6Hr Max

Map

Hourly Data

Fosberg 6Hr Max

Map

Hourly Data